DateTimeUTC,F1_A11,F1_S11,BsB_S11,BsG_S11,BsR_S11,BbsB_S11,BbsG_S11,BbsR_S11,BaB_A11,BaG_A11,BaR_A11,Tu_S11,T_S11,Uu_S11,U_S11,P_S11,T1_A11
2021-04-16T17:00:00Z,00000200,21000000,,,,,,,-000.09,-000.17,-000.10,17.9,24.9,,00.0,0648.4,31.0
2021-04-16T17:01:00Z,00000200,21000000,,,,,,,-000.63,-000.58,-000.23,17.9,24.9,,00.0,0648.3,31.0
2021-04-16T17:02:00Z,00000200,21000000,,,,,,,0000.12,-000.25,-000.27,17.8,24.9,,00.0,0648.3,31.0
2021-04-16T17:03:00Z,00000200,61000000,,,,,,,0000.22,0000.58,0000.26,17.8,24.9,,00.0,0648.3,31.0
2021-04-16T17:04:00Z,00000200,41000000,0000.32,0000.68,0000.29,0000.32,0000.06,0000.20,0000.08,-000.07,-000.17,17.7,24.7,,00.0,0649.2,31.0
2021-04-16T17:05:00Z,00000200,01000000,0000.64,0000.48,0000.53,0000.06,-000.06,-000.07,0000.33,0000.02,0000.21,17.7,24.6,,00.0,0649.2,31.0
2021-04-16T17:06:00Z,00000200,01000000,0000.01,0000.71,0000.65,0000.10,0000.02,0000.03,0000.70,0000.75,0001.05,17.7,24.6,,00.0,0649.3,31.0
2021-04-16T17:07:00Z,00000200,01000000,-000.05,0000.63,0000.83,0000.66,0000.27,0000.15,0000.49,0000.54,-000.14,17.8,24.6,,00.0,0649.3,31.0
2021-04-16T17:08:00Z,00000200,01000000,0000.56,0000.34,0000.74,0000.09,-000.34,0000.35,-000.04,0000.34,0000.48,17.8,24.6,,00.0,0649.1,31.1
2021-04-16T17:09:00Z,00000200,01000000,0000.79,0000.59,0000.73,0000.68,-000.10,0000.04,0000.99,0000.36,0000.56,17.9,24.7,,00.0,0649.1,31.1
2021-04-16T17:10:00Z,00000200,01000000,0000.68,0000.62,0000.53,0000.60,-000.01,-000.04,-000.17,0000.49,0000.27,18.0,24.7,,00.0,0649.1,31.1
2021-04-16T17:11:00Z,00000200,01000000,0001.11,0000.47,0000.99,0000.09,0000.22,0000.40,0000.49,0000.49,0000.80,18.0,24.7,,00.0,0649.0,31.1
2021-04-16T17:12:00Z,00000200,01000000,0000.56,0000.65,0000.84,0000.43,0000.26,0000.05,0000.04,0000.01,-000.25,18.1,24.7,,00.0,0649.1,31.1
2021-04-16T17:13:00Z,00000200,01000000,0000.11,0000.41,0000.67,0000.25,0000.17,0000.38,0000.18,-000.01,0000.36,18.0,24.8,,00.0,0649.1,31.1
2021-04-16T17:14:00Z,00000200,01000000,0000.57,0000.42,0000.31,0000.17,-000.07,-000.27,0000.86,0000.90,0000.11,18.0,24.7,,00.0,0649.3,31.1
2021-04-16T17:15:00Z,00000200,01000000,0000.36,0000.53,0000.66,0000.75,0000.14,0000.21,0000.01,-000.17,0000.38,17.9,24.7,,00.0,0649.4,31.0
2021-04-16T17:16:00Z,00000200,01000000,0000.31,0000.92,0000.39,-000.06,-000.00,0000.09,0000.34,0000.14,0000.10,17.9,24.7,,00.0,0649.4,31.0
2021-04-16T17:17:00Z,00000200,01000000,0000.27,0000.64,0000.57,0000.26,0000.16,0000.32,-000.08,0000.29,-000.05,17.8,24.6,,00.0,0649.5,31.0
2021-04-16T17:18:00Z,00000200,01000000,0000.54,0000.52,0000.28,0000.20,0000.19,-000.03,0000.65,0000.39,0000.29,17.8,24.6,,00.0,0649.2,31.0
2021-04-16T17:19:00Z,00000200,01000000,-000.08,0000.74,0000.54,0000.54,0000.29,0000.22,-000.03,0000.10,0000.20,17.7,24.6,,00.0,0649.3,31.0
2021-04-16T17:20:00Z,00000200,01000000,0000.99,0000.76,0000.42,0000.15,-000.03,0000.01,0000.17,0000.06,0000.40,17.7,24.6,,00.0,0649.4,31.0
2021-04-16T17:21:00Z,00000200,01000000,0000.86,0000.56,0000.75,0000.12,0000.32,0000.19,0000.52,0000.53,0000.31,17.7,24.6,,00.0,0649.4,31.0
2021-04-16T17:22:00Z,00000200,01000000,0000.49,0000.57,0000.29,0000.53,-000.06,-000.02,0000.45,0000.36,0000.25,17.7,24.6,,00.0,0649.3,31.0
2021-04-16T17:23:00Z,00000200,01000000,0000.13,0000.50,0000.44,0000.51,0000.05,0000.10,0000.18,0000.41,-000.01,17.8,24.6,,00.0,0649.2,31.0
2021-04-16T17:24:00Z,00000200,01000000,0001.02,0000.53,0000.77,0000.48,0000.16,0000.15,0000.51,0000.55,0000.94,17.9,24.6,,00.0,0649.1,31.1
2021-04-16T17:25:00Z,00000200,01000000,0000.82,0000.63,0000.54,-000.18,0000.31,0000.09,0000.54,0000.67,-000.05,17.9,24.7,,00.0,0649.2,31.1
2021-04-16T17:26:00Z,00000200,01000000,0000.74,0000.55,0000.68,0000.24,0000.08,-000.02,0000.35,0000.42,0000.74,18.0,24.7,,00.0,0649.1,31.1
2021-04-16T17:27:00Z,00000200,01000000,0000.75,0000.68,0000.68,0000.43,0000.19,-000.03,0000.08,-000.07,-000.13,18.0,24.7,,00.0,0649.2,31.0
2021-04-16T17:28:00Z,00000200,01000000,0000.69,0000.65,0000.54,0000.61,0000.21,-000.02,0000.43,0000.01,0000.06,18.0,24.7,,00.0,0649.2,31.0
2021-04-16T17:29:00Z,00000200,01000000,0000.60,0000.55,0000.72,0000.33,0000.15,0000.07,0000.13,0000.25,0000.39,17.9,24.7,,00.0,0649.2,31.0
2021-04-16T17:30:00Z,00000200,01000000,0000.60,0000.47,0000.54,0000.03,-000.01,0000.12,0000.20,0000.32,0000.05,17.9,24.7,,00.0,0649.2,31.0
2021-04-16T17:31:00Z,00000200,01000000,0000.65,0000.55,0000.61,0000.48,0000.18,0000.06,0000.23,-000.10,0000.23,17.9,24.7,,00.0,0649.3,31.0
2021-04-16T17:32:00Z,00000200,01000000,0000.53,0000.54,0000.66,0000.31,0000.22,0000.10,0000.63,0000.38,0000.40,17.8,24.7,,00.0,0649.2,31.0
2021-04-16T17:33:00Z,00000200,01000000,0000.39,0000.81,0000.65,0000.41,0000.23,-000.10,-000.14,0000.18,0000.05,17.8,24.7,,00.0,0649.3,31.0
2021-04-16T17:34:00Z,00000200,01000000,0000.43,0000.69,0000.75,0000.20,0000.02,0000.58,0000.31,0000.60,0000.38,17.9,24.6,,00.0,0649.4,31.1
2021-04-16T17:35:00Z,00000200,01000000,0000.86,0000.53,0000.45,0000.47,0000.19,0000.35,0000.58,-000.15,-000.08,17.9,24.7,,00.0,0649.3,31.1
2021-04-16T17:36:00Z,00000200,01000000,0000.89,0000.61,0000.45,0000.71,0000.20,0000.11,0000.07,0000.80,0000.52,18.0,24.7,,00.0,0649.2,31.1
2021-04-16T17:37:00Z,00000200,01000000,0000.30,0000.56,0000.74,0000.92,-000.05,0000.19,0000.02,0000.21,0000.16,18.0,24.7,,00.0,0649.4,31.1
2021-04-16T17:38:00Z,00000200,01000000,0000.06,0000.58,0000.73,0000.18,0000.05,0000.48,0000.43,0000.18,0000.20,18.0,24.7,,00.0,0649.4,31.1
2021-04-16T17:39:00Z,00000200,01000000,0001.16,0000.50,0000.52,0000.26,-000.08,-000.02,0000.35,0000.26,0000.28,18.1,24.8,,00.0,0649.4,31.1
2021-04-16T17:40:00Z,00000200,01000000,0000.67,0000.85,0000.44,0000.55,0000.07,0000.10,-000.18,-000.03,0000.10,18.1,24.8,,00.0,0649.3,31.1
2021-04-16T17:41:00Z,00000200,01000000,0001.00,0000.50,0000.69,0000.45,0000.47,0000.18,-000.05,0000.09,0000.07,18.2,24.8,,00.0,0649.3,31.1
2021-04-16T17:42:00Z,00000200,01000000,0000.28,0000.69,0000.53,0000.36,0000.34,-000.04,0000.90,0000.43,0000.49,18.2,24.9,,00.0,0649.2,31.1
2021-04-16T17:43:00Z,00000200,01000000,0000.99,0000.68,0000.71,0000.06,0000.06,0000.15,0000.06,0000.52,0000.12,18.3,24.9,,00.0,0649.4,31.1
2021-04-16T17:44:00Z,00000200,01000000,0000.57,0000.67,0000.85,0000.78,0000.25,0000.27,0000.40,0000.28,0000.35,18.3,24.9,,00.0,0649.4,31.1
2021-04-16T17:45:00Z,00000200,01010000,0000.58,0000.58,0000.31,0000.25,0000.05,-000.27,0000.11,0000.33,0000.41,18.3,24.9,,00.0,0649.4,31.1
2021-04-16T17:46:00Z,00000200,01000000,0000.02,0000.61,0000.74,0000.64,-000.12,0000.28,0000.33,0000.07,0000.05,18.3,25.0,,00.0,0649.4,31.1
2021-04-16T17:47:00Z,00000200,01000000,0000.98,0000.59,0000.68,0000.35,0000.14,0000.12,0000.23,0000.29,0000.11,18.4,25.0,,00.0,0649.4,31.1
2021-04-16T17:48:00Z,00000200,01000000,0000.38,0000.82,0000.63,0000.05,0000.20,0000.17,0000.07,-000.06,-000.07,18.4,25.0,,00.0,0649.4,31.1
2021-04-16T17:49:00Z,00000200,01000000,-000.48,0000.51,0000.55,0000.56,0000.03,-000.06,0000.25,0000.35,0000.21,18.4,25.0,,00.0,0649.5,31.1
2021-04-16T17:50:00Z,00000200,01000000,0000.72,0000.65,0000.41,0000.46,0000.09,0000.27,0000.48,0000.17,0000.58,18.5,25.1,,00.0,0649.6,31.1
2021-04-16T17:51:00Z,00000200,01000000,0000.01,0000.76,0000.86,0000.34,0000.16,0000.39,0000.20,0000.27,-000.02,18.5,25.0,,00.0,0649.4,31.1
2021-04-16T17:52:00Z,00000200,01000000,0000.39,0000.53,0000.70,0000.13,0000.36,0000.43,0000.46,0000.09,0000.39,18.5,25.1,,00.0,0649.3,31.1
2021-04-16T17:53:00Z,00000200,01000000,0000.93,0000.51,0000.66,-000.25,0000.00,0000.18,0000.27,0000.29,0000.14,18.4,25.1,,00.0,0649.3,31.1
2021-04-16T17:54:00Z,00000200,01000000,0000.49,0000.66,0000.54,0000.36,0000.03,0000.20,0000.06,0000.41,0000.20,18.3,25.1,,00.0,0649.2,31.1
2021-04-16T17:55:00Z,00000200,01000000,0000.48,0000.74,0000.23,0000.20,0000.10,-000.00,-000.17,0000.02,-000.02,18.3,25.0,,00.0,0649.2,31.0
2021-04-16T17:56:00Z,00000200,01000000,0000.27,0000.79,0000.54,0000.19,-000.18,-000.18,0000.50,0000.11,0000.39,18.2,25.0,,00.0,0649.2,31.0
2021-04-16T17:57:00Z,00000200,41000000,,,,,,,0000.88,0000.74,0000.65,18.2,25.1,,00.0,0649.3,31.0
2021-04-16T17:58:00Z,00000200,61000000,,,,,,,0000.08,-000.08,-000.51,17.9,25.1,,00.0,0648.5,31.0
2021-04-16T17:59:00Z,00000200,21000000,,,,,,,-000.13,-000.17,0000.06,17.9,25.2,,00.0,0648.4,31.0
